Flag for Japan Weather past 2 weeks in Hiroshima, Japan

Now
83 °F

Fog.


Feels Like: 94 °F
Forecast: 72 / 98 °F
Wind: 5 mph from East

Location: Iwakuni Marine Corps Air Station

Current Time: Jul 31, 2015 at 8:30:13 AM

Latest Report: Jul 31, 2015 at 7:55 AM


Visibility: 3 mi

Pressure: 29.86 "Hg

Humidity: 88%

Dew point: 79 °F

Location of HiroshimaLocation

Historic Weather in Hiroshima — Graph

°F

Hiroshima temperature yesterday

Maximum temperature yesterday: 88 °F (at 3:55 PM)
Minimum temperature yesterday: 80 °F (at 5:55 AM)
Average temperature yesterday: 84 °F

Past Weeks' High & Low Weather Summary

 TemperatureHumidityPressure
High140 °F (Jul 25, 9:55 AM)100% (Jul 31, 3:55 AM)29.93 "Hg (Jul 31, 3:55 AM)
Low71 °F (Jul 18, 5:55 AM)1% (Jul 22, 10:55 AM)29.19 "Hg (Jul 17, 1:55 AM)
Average81 °F81%29.78 "Hg
* Reported Jul 16 6:55 AM — Jul 31 6:55 AM, Hiroshima, Weather by CustomWeather, © 2015

Note: Actual official high and low records may vary slightly from our data, if they occured in-between our weather recording intervals... More about our weather records

Advertising

Hiroshima weather history for previous 24 hours

 ConditionsComfort  
Time TempWeatherWind HumidityBarometerVisibility
6:55 AM
Fri, Jul 31
80 °FFog.No wind96%29.85 "Hg4 mi
5:55 AM79 °FFog.3 mph100%29.84 "Hg4 mi
4:55 AM81 °FPassing clouds.No wind100%29.83 "HgN/A
3:55 AM81 °FClear.No wind100%29.83 "HgN/A
12:55 AM81 °FClear.No wind94%29.82 "HgN/A
10:55 PM
Thu, Jul 30
82 °FClear.No wind88%29.81 "Hg7 mi
9:55 PM82 °FClear.No wind91%29.81 "HgN/A
8:55 PM83 °FClear.3 mph91%29.81 "HgN/A
6:55 PM85 °FPassing clouds.3 mph83%29.78 "HgN/A
5:55 PM86 °FSunny.6 mph80%29.78 "HgN/A
4:55 PM87 °FPassing clouds.3 mph77%29.78 "HgN/A
3:55 PM88 °FPassing clouds.7 mph70%29.80 "HgN/A
2:55 PM87 °FPassing clouds.7 mph77%29.81 "HgN/A
1:55 PM87 °FPassing clouds.9 mph72%29.82 "HgN/A
12:55 PM87 °FHaze.12 mph82%29.83 "Hg6 mi
11:55 AM86 °FHaze.8 mph80%29.84 "Hg6 mi
10:55 AM87 °FHaze.8 mph77%29.85 "Hg5 mi
9:55 AM86 °FHaze.10 mph80%29.85 "Hg5 mi
8:55 AM86 °FHaze.5 mph77%29.84 "Hg5 mi
Weather by CustomWeather, © 2015

See weather overviewHow to use our weather pages